Date String (YYYY-MM-DD hh:mm:ss) UTC,Instrument flags,Ambient pressure (hPa),Sample flow (lpm),Bypass flow (lpm),Sample temperature (°C),Ambient temperature (°C),ASC tube jacket temperature (°C),LED temperature (°C),Box temperature (°C),Sample RH (%),Span deviation,Mass concentration (μg/m³),Mass concentration (μg/m³),Mass concentration (μg/m³)
DateTimeUTC,F1_M11,P_M11,Q1_M11,Q2_M11,T1_M11,T2_M11,T3_M11,T4_M11,T5_M11,U1_M11,ZSPAN_M11,X0_M11,X2_M11,X1_M11
2022-01-03 15:00:00,,0826.1,5.00,0.00,22.2,21.5,00.0,31.2,23.8,09.0,0000.0,0002.00,0000.03,0000.00
2022-01-03 15:01:00,,0826.2,5.01,0.00,22.2,21.5,00.0,31.2,23.8,08.8,0000.0,0002.00,0000.03,0000.00
2022-01-03 15:02:00,,0826.2,4.99,0.00,22.1,21.5,00.0,31.2,23.7,08.8,0000.0,0002.00,0000.03,0000.00
2022-01-03 15:03:00,,0826.2,5.00,0.00,22.1,21.4,00.0,31.2,23.7,08.3,0000.0,0002.00,0000.03,0000.00
2022-01-03 15:04:00,,0826.2,5.01,0.00,22.1,21.4,00.0,31.1,23.7,07.8,0000.0,0001.21,0000.04,0000.00
2022-01-03 15:05:00,,0826.2,4.99,0.00,22.1,21.4,00.0,31.1,23.7,08.6,0000.0,0000.08,0000.04,0000.00
2022-01-03 15:06:00,,0826.2,5.00,0.00,22.0,21.3,00.0,31.1,23.6,08.6,0000.0,0000.06,0000.03,0000.00
2022-01-03 15:07:00,,0826.2,5.00,0.00,22.0,21.2,00.0,31.1,23.5,08.5,0000.0,0000.62,0000.03,0000.00
2022-01-03 15:08:00,,0826.2,5.01,0.00,21.9,21.1,00.0,31.1,23.5,08.8,0000.0,0000.79,0000.02,0000.00
2022-01-03 15:09:00,,0826.2,5.00,0.00,21.9,21.2,00.0,31.1,23.5,09.1,0000.0,0000.79,0000.02,0000.00
2022-01-03 15:10:00,,0826.0,5.01,0.00,22.0,22.1,00.0,31.1,23.8,08.4,0000.0,0000.79,0000.02,0000.00
2022-01-03 15:11:00,,0826.1,5.00,0.00,22.2,22.9,00.0,31.2,24.1,07.9,0000.0,0000.79,0000.02,0000.00
2022-01-03 15:12:00,,0826.0,5.00,0.00,22.3,22.9,00.0,31.2,24.2,08.5,0000.0,0000.81,0000.03,0000.00
2022-01-03 15:13:00,,0826.0,5.00,0.00,22.2,22.5,00.0,31.2,24.1,08.7,0000.0,0000.83,0000.04,0000.00
2022-01-03 15:14:00,,0826.0,5.00,0.00,22.2,22.2,00.0,31.2,23.9,08.6,0000.0,0000.83,0000.05,0000.00
2022-01-03 15:15:00,,0826.1,5.01,0.00,22.1,21.9,00.0,31.2,23.7,08.8,0000.0,0000.81,0000.03,0000.00
2022-01-03 15:16:00,,0826.0,5.01,0.00,22.0,21.7,00.0,31.2,23.6,09.1,0000.0,0000.81,0000.03,0000.00
2022-01-03 15:17:00,,0826.0,4.99,0.00,22.0,21.4,00.0,31.1,23.5,09.3,0000.0,0000.85,0000.04,0000.00
2022-01-03 15:18:00,,0826.0,5.01,0.00,21.9,21.2,00.0,31.1,23.4,08.9,0000.0,0000.33,0000.05,0000.00
2022-01-03 15:19:00,,0825.9,4.99,0.00,21.8,21.1,00.0,31.1,23.3,09.1,0000.0,0000.13,0000.05,0000.01
2022-01-03 15:20:00,,0826.0,5.01,0.00,21.7,20.8,00.0,31.0,23.2,09.0,0000.0,0000.14,0000.06,0000.01
2022-01-03 15:21:00,,0826.0,5.00,0.00,21.6,20.7,00.0,31.0,23.1,09.2,0000.0,0000.14,0000.06,0000.01
2022-01-03 15:22:00,,0826.1,5.00,0.00,21.6,20.6,00.0,30.9,23.0,09.7,0000.0,0000.15,0000.06,0000.01
2022-01-03 15:23:00,,0826.1,4.99,0.00,21.5,20.6,00.0,30.9,23.0,09.6,0000.0,0000.13,0000.05,0000.01
2022-01-03 15:24:00,,0825.9,5.00,0.00,21.5,20.6,00.0,30.9,23.0,09.1,0000.0,0000.11,0000.04,0000.01
2022-01-03 15:25:00,,0825.9,5.00,0.00,21.4,20.5,00.0,30.8,22.9,09.0,0000.0,0000.17,0000.05,0000.01
2022-01-03 15:26:00,,0826.0,4.99,0.00,21.4,20.5,00.0,30.8,22.9,09.3,0000.0,0000.20,0000.05,0000.01
2022-01-03 15:27:00,,0825.9,5.01,0.00,21.4,20.5,00.0,30.7,22.9,09.0,0000.0,0000.20,0000.05,0000.01
2022-01-03 15:28:00,,0825.9,5.00,0.00,21.4,21.1,00.0,30.7,23.1,08.5,0000.0,0000.84,0000.04,0000.01
2022-01-03 15:29:00,,0826.0,4.99,0.00,21.6,22.2,00.0,30.8,23.5,08.4,0000.0,0001.78,0000.03,0000.01
2022-01-03 15:30:00,,0826.0,5.00,0.00,21.8,23.0,00.0,30.8,23.8,08.7,0000.0,0001.77,0000.02,0000.01
2022-01-03 15:31:00,,0826.0,4.99,0.00,21.9,22.8,00.0,30.8,23.8,08.5,0000.0,0001.77,0000.03,0000.00
2022-01-03 15:32:00,,0825.9,5.01,0.00,21.9,22.4,00.0,30.8,23.7,08.8,0000.0,0001.78,0000.04,0000.00
2022-01-03 15:33:00,,0825.9,5.00,0.00,21.8,22.1,00.0,30.8,23.6,08.6,0000.0,0001.79,0000.04,0000.00
2022-01-03 15:34:00,,0826.0,4.99,0.00,21.8,21.8,00.0,30.8,23.5,08.5,0000.0,0001.80,0000.05,0000.00
2022-01-03 15:35:00,,0826.0,5.00,0.00,21.8,21.6,00.0,30.8,23.4,09.0,0000.0,0001.80,0000.05,0000.00
2022-01-03 15:36:00,,0825.9,5.01,0.00,21.7,21.4,00.0,30.8,23.4,09.0,0000.0,0001.79,0000.05,0000.00
2022-01-03 15:37:00,,0826.0,5.01,0.00,21.7,21.3,00.0,30.8,23.3,08.7,0000.0,0002.60,0000.04,0000.00
2022-01-03 15:38:00,,0825.9,4.98,0.00,21.7,21.2,00.0,30.8,23.3,08.5,0000.0,0002.60,0000.04,0000.00
2022-01-03 15:39:00,,0826.0,5.00,0.00,21.7,21.1,00.0,30.8,23.3,08.3,0000.0,0002.14,0000.04,0000.00
2022-01-03 15:40:00,,0826.0,5.01,0.00,21.7,21.0,00.0,30.8,23.3,08.7,0000.0,0000.94,0000.04,0000.00
2022-01-03 15:41:00,,0826.0,5.00,0.00,21.6,21.0,00.0,30.8,23.2,09.0,0000.0,0000.94,0000.04,0000.00
2022-01-03 15:42:00,,0825.9,4.99,0.00,21.6,21.0,00.0,30.8,23.2,08.9,0000.0,0001.58,0000.03,0000.00
2022-01-03 15:43:00,,0826.0,5.01,0.00,21.6,20.9,00.0,30.7,23.2,08.8,0000.0,0001.64,0000.03,0000.00
2022-01-03 15:44:00,,0826.0,4.99,0.00,21.6,20.9,00.0,30.7,23.2,09.3,0000.0,0001.63,0000.02,0000.00
2022-01-03 15:45:00,,0826.1,5.02,0.00,21.6,20.9,00.0,30.7,23.2,09.3,0000.0,0001.61,0000.01,0000.00
2022-01-03 15:46:00,,0826.0,4.99,0.00,21.6,20.9,00.0,30.7,23.2,08.9,0000.0,0001.61,0000.01,0000.00
2022-01-03 15:47:00,,0826.0,5.00,0.00,21.6,21.0,00.0,30.7,23.2,09.3,0000.0,0001.55,0000.01,0000.00
2022-01-03 15:48:00,,0826.0,5.01,0.00,21.6,21.0,00.0,30.7,23.2,09.3,0000.0,0000.77,0000.02,0000.00
2022-01-03 15:49:00,,0826.0,4.99,0.00,21.6,21.2,00.0,30.7,23.3,09.4,0000.0,0000.77,0000.02,0000.00
2022-01-03 15:50:00,,0826.0,4.99,0.00,21.8,22.2,00.0,30.7,23.6,09.8,0000.0,0000.77,0000.02,0000.00
2022-01-03 15:51:00,,0826.0,4.99,0.00,21.9,23.1,00.0,30.8,23.9,09.4,0000.0,0000.77,0000.02,0000.00
2022-01-03 15:52:00,,0826.0,5.01,0.00,22.1,23.1,00.0,30.9,24.0,08.2,0000.0,0000.77,0000.02,0000.00
2022-01-03 15:53:00,,0826.0,5.00,0.00,22.1,22.8,00.0,30.9,24.0,08.6,0000.0,0000.19,0000.02,0000.00
2022-01-03 15:54:00,,0826.0,5.00,0.00,22.1,22.5,00.0,30.9,23.9,09.1,0000.0,0000.05,0000.02,0000.00
2022-01-03 15:55:00,,0826.0,5.00,0.00,22.1,22.2,00.0,30.9,23.8,08.7,0000.0,0000.92,0000.02,0000.00
2022-01-03 15:56:00,,0825.9,4.99,0.00,22.1,22.0,00.0,30.9,23.8,08.8,0000.0,0000.94,0000.02,0000.00
2022-01-03 15:57:00,,0825.9,5.02,0.00,22.1,21.9,00.0,31.0,23.8,09.2,0000.0,0000.94,0000.02,0000.00
2022-01-03 15:58:00,,0826.0,4.99,0.00,22.1,21.8,00.0,31.0,23.8,08.6,0000.0,0000.94,0000.02,0000.00
2022-01-03 15:59:00,,0826.0,5.00,0.00,22.0,21.7,00.0,31.0,23.7,08.4,0000.0,0000.90,0000.01,0000.00
